UTA332 USSS-USHN

Flight info

Callsign UTA332
Flight time 2h 27m
Altitude 19000
Route N0240F190 DOSUM L992 UNISO W253 ABELO
Aircraft AN24/M-I/L

Departure

Time 2026-04-16 06:06
Airport Koltsovo Airport (USSS)

Arrival

Time 2026-04-16 08:33
Airport Nyagan Airport (USHN)
Time Latitude Longitude Altitude Speed Heading
2026-04-16 05:16 56.74797 60.80538 778 ft 0 kts
2026-04-16 06:00 56.74799 60.80538 778 ft 3 kts
2026-04-16 06:00 56.74852 60.80584 778 ft 9 kts 83°
2026-04-16 06:00 56.74850 60.80732 778 ft 17 kts 88°
2026-04-16 06:00 56.74850 60.80917 778 ft 12 kts 91°
2026-04-16 06:01 56.74862 60.81111 778 ft 15 kts 83°
2026-04-16 06:01 56.74863 60.81320 778 ft 20 kts 89°
2026-04-16 06:01 56.74863 60.81545 778 ft 15 kts 89°
2026-04-16 06:01 56.74863 60.81712 778 ft 13 kts 90°
2026-04-16 06:02 56.74788 60.82116 778 ft 16 kts 116°
2026-04-16 06:02 56.74686 60.82202 778 ft 17 kts 183°
2026-04-16 06:02 56.74578 60.82199 778 ft 14 kts 182°
2026-04-16 06:03 56.74420 60.82195 778 ft 26 kts 186°
2026-04-16 06:03 56.74252 60.82173 778 ft 21 kts 184°
2026-04-16 06:03 56.74126 60.82160 778 ft 15 kts 184°
2026-04-16 06:03 56.74064 60.82077 778 ft 9 kts 271°
2026-04-16 06:04 56.74071 60.81966 778 ft 10 kts 274°
2026-04-16 06:04 56.74072 60.81935 778 ft 0 kts 274°
2026-04-16 06:05 56.74073 60.81891 778 ft 24 kts 273°
2026-04-16 06:05 56.74104 60.81113 778 ft 93 kts 274°
2026-04-16 06:05 56.74160 60.79678 803 ft 128 kts 277°
2026-04-16 06:05 56.74231 60.77964 1068 ft 142 kts 274°
2026-04-16 06:06 56.74317 60.76104 1345 ft 154 kts 277°
2026-04-16 06:06 56.74417 60.74080 1599 ft 167 kts 275°
2026-04-16 06:06 56.74535 60.71932 1903 ft 175 kts 278°
2026-04-16 06:06 56.74664 60.69706 2296 ft 175 kts 277°
2026-04-16 06:07 56.74777 60.67556 2744 ft 170 kts 278°
2026-04-16 06:07 56.74916 60.65399 3058 ft 173 kts 280°
2026-04-16 06:07 56.75049 60.63219 3322 ft 178 kts 279°
2026-04-16 06:07 56.75024 60.60932 3577 ft 185 kts 262°
2026-04-16 06:08 56.74491 60.58771 3797 ft 194 kts 236°
2026-04-16 06:08 56.73448 60.57240 4158 ft 196 kts 208°
2026-04-16 06:08 56.72114 60.56659 4398 ft 202 kts 184°
2026-04-16 06:08 56.70748 60.57094 4661 ft 203 kts 156°
2026-04-16 06:09 56.69604 60.58565 4958 ft 200 kts 130°
2026-04-16 06:09 56.68887 60.60690 5219 ft 197 kts 107°
2026-04-16 06:09 56.68720 60.63085 5511 ft 190 kts 79°
2026-04-16 06:09 56.69051 60.65345 5792 ft 186 kts 67°
2026-04-16 06:10 56.69492 60.67514 6207 ft 178 kts 63°
2026-04-16 06:10 56.69962 60.69585 6469 ft 180 kts 62°
2026-04-16 06:10 56.70451 60.71698 6768 ft 180 kts 62°
2026-04-16 06:10 56.70921 60.73740 7113 ft 176 kts 62°
2026-04-16 06:11 56.71410 60.75805 7371 ft 178 kts 60°
2026-04-16 06:11 56.72046 60.77699 7550 ft 177 kts 41°
2026-04-16 06:11 56.73071 60.78873 7766 ft 174 kts 21°
2026-04-16 06:11 56.74134 60.79749 8211 ft 163 kts 21°
2026-04-16 06:12 56.75146 60.80629 8505 ft 163 kts 24°
2026-04-16 06:12 56.76126 60.81646 8760 ft 164 kts 28°
2026-04-16 06:12 56.77084 60.82782 9047 ft 163 kts 28°
2026-04-16 06:12 56.78046 60.83847 9344 ft 161 kts 26°
2026-04-16 06:13 56.78980 60.84873 9640 ft 159 kts 27°
2026-04-16 06:13 56.79924 60.85915 9932 ft 157 kts 26°
2026-04-16 06:13 56.80854 60.86933 10215 ft 156 kts 26°
2026-04-16 06:13 56.81769 60.87935 10481 ft 155 kts 26°
2026-04-16 06:14 56.82691 60.88947 10746 ft 155 kts 26°
2026-04-16 06:14 56.83615 60.89962 11019 ft 154 kts 26°
2026-04-16 06:14 56.84522 60.90960 11279 ft 153 kts 26°
2026-04-16 06:14 56.85422 60.91953 11537 ft 152 kts 26°
2026-04-16 06:15 56.86326 60.92950 11798 ft 151 kts 26°
2026-04-16 06:15 56.87225 60.93938 12053 ft 150 kts 26°
2026-04-16 06:15 56.88110 60.94913 12288 ft 150 kts 25°
2026-04-16 06:15 56.88997 60.95890 12521 ft 150 kts 25°
2026-04-16 06:16 56.89881 60.96865 12746 ft 150 kts 25°
2026-04-16 06:16 56.90779 60.97856 12967 ft 150 kts 25°
2026-04-16 06:16 56.91661 60.98830 13183 ft 149 kts 25°
2026-04-16 06:16 56.92552 60.99818 13396 ft 149 kts 25°
2026-04-16 06:17 56.93425 61.00783 13605 ft 148 kts 25°
2026-04-16 06:17 56.94313 61.01764 13809 ft 148 kts 25°
2026-04-16 06:17 56.95183 61.02725 14003 ft 148 kts 25°
2026-04-16 06:17 56.96060 61.03695 14203 ft 147 kts 25°
2026-04-16 06:18 56.96935 61.04666 14400 ft 147 kts 25°
2026-04-16 06:18 56.97798 61.05624 14589 ft 146 kts 25°
2026-04-16 06:18 56.98670 61.06594 14781 ft 146 kts 25°
2026-04-16 06:18 56.99529 61.07544 14962 ft 146 kts 24°
2026-04-16 06:19 57.00401 61.08511 15148 ft 145 kts 24°
2026-04-16 06:19 57.01260 61.09465 15326 ft 146 kts 24°
2026-04-16 06:19 57.02130 61.10432 15501 ft 145 kts 25°
2026-04-16 06:19 57.02988 61.11387 15667 ft 145 kts 25°
2026-04-16 06:20 57.03850 61.12347 15828 ft 145 kts 24°
2026-04-16 06:20 57.04702 61.13298 15989 ft 145 kts 24°
2026-04-16 06:20 57.05568 61.14262 16133 ft 146 kts 24°
2026-04-16 06:20 57.06437 61.15226 16253 ft 148 kts 24°
2026-04-16 06:21 57.07320 61.16208 16373 ft 149 kts 25°
2026-04-16 06:21 57.08210 61.17200 16492 ft 151 kts 24°
2026-04-16 06:21 57.09111 61.18203 16611 ft 152 kts 25°
2026-04-16 06:21 57.10008 61.19201 16737 ft 152 kts 24°
2026-04-16 06:22 57.10919 61.20217 16876 ft 153 kts 24°
2026-04-16 06:22 57.11832 61.21238 17011 ft 154 kts 24°
2026-04-16 06:22 57.12749 61.22262 17147 ft 154 kts 24°
2026-04-16 06:22 57.13663 61.23284 17286 ft 155 kts 24°
2026-04-16 06:23 57.14581 61.24311 17419 ft 155 kts 24°
2026-04-16 06:23 57.15505 61.25344 17555 ft 155 kts 24°
2026-04-16 06:23 57.16413 61.26363 17697 ft 155 kts 24°
2026-04-16 06:23 57.17335 61.27398 17830 ft 154 kts 24°
2026-04-16 06:24 57.18248 61.28424 17965 ft 154 kts 24°
2026-04-16 06:24 57.19159 61.29450 18101 ft 154 kts 24°
2026-04-16 06:24 57.20068 61.30471 18235 ft 153 kts 24°
2026-04-16 06:24 57.20970 61.31484 18361 ft 153 kts 24°
2026-04-16 06:25 57.21883 61.32511 18487 ft 153 kts 24°
2026-04-16 06:25 57.22787 61.33527 18613 ft 153 kts 24°
2026-04-16 06:25 57.23705 61.34537 18737 ft 153 kts 23°
2026-04-16 06:25 57.24615 61.35519 18837 ft 153 kts 23°
2026-04-16 06:26 57.25535 61.36517 18944 ft 154 kts 23°
2026-04-16 06:26 57.26457 61.37518 19048 ft 154 kts 23°
2026-04-16 06:26 57.27372 61.38513 19159 ft 154 kts 23°
2026-04-16 06:26 57.28291 61.39513 19249 ft 155 kts 23°
2026-04-16 06:27 57.29230 61.40530 19275 ft 159 kts 23°
2026-04-16 06:27 57.30193 61.41581 19303 ft 163 kts 24°
2026-04-16 06:27 57.31171 61.42686 19300 ft 166 kts 24°
2026-04-16 06:27 57.32160 61.43803 19303 ft 169 kts 24°
2026-04-16 06:28 57.33169 61.44940 19306 ft 170 kts 24°
2026-04-16 06:28 57.34193 61.46100 19303 ft 172 kts 24°
2026-04-16 06:28 57.35218 61.47258 19290 ft 174 kts 24°
2026-04-16 06:28 57.36239 61.48414 19310 ft 174 kts 25°
2026-04-16 06:29 57.37273 61.49589 19305 ft 174 kts 24°
2026-04-16 06:29 57.38312 61.50771 19298 ft 175 kts 24°
2026-04-16 06:29 57.39354 61.51955 19315 ft 176 kts 24°
2026-04-16 06:29 57.40386 61.53128 19297 ft 177 kts 25°
2026-04-16 06:30 57.41440 61.54324 19293 ft 178 kts 25°
2026-04-16 06:30 57.42500 61.55528 19291 ft 179 kts 25°
2026-04-16 06:30 57.43563 61.56740 19283 ft 180 kts 25°
2026-04-16 06:30 57.44626 61.57953 19292 ft 180 kts 25°
2026-04-16 06:31 57.45687 61.59164 19274 ft 181 kts 25°
2026-04-16 06:31 57.46757 61.60389 19304 ft 179 kts 24°
2026-04-16 06:31 57.47818 61.61605 19294 ft 180 kts 24°
2026-04-16 06:31 57.48866 61.62805 19293 ft 180 kts 24°
2026-04-16 06:32 57.49932 61.64028 19290 ft 180 kts 24°
2026-04-16 06:32 57.51001 61.65255 19297 ft 180 kts 25°
2026-04-16 06:32 57.52065 61.66477 19288 ft 181 kts 25°
2026-04-16 06:32 57.53138 61.67712 19287 ft 181 kts 25°
2026-04-16 06:33 57.54196 61.68929 19297 ft 180 kts 25°
2026-04-16 06:33 57.55266 61.70159 19287 ft 180 kts 25°
2026-04-16 06:33 57.56325 61.71380 19299 ft 180 kts 25°
2026-04-16 06:33 57.57380 61.72596 19272 ft 180 kts 25°
2026-04-16 06:34 57.58434 61.73809 19276 ft 179 kts 25°
2026-04-16 06:34 57.59502 61.75042 19286 ft 179 kts 25°
2026-04-16 06:34 57.60555 61.76260 19276 ft 180 kts 25°
2026-04-16 06:34 57.61615 61.77486 19294 ft 179 kts 25°
2026-04-16 06:35 57.62661 61.78681 19279 ft 178 kts 23°
2026-04-16 06:35 57.63796 61.79487 19335 ft 172 kts 12°
2026-04-16 06:35 57.64953 61.80108 19266 ft 176 kts 13°
2026-04-16 06:35 57.66145 61.80777 19224 ft 177 kts 13°
2026-04-16 06:36 57.67305 61.81397 19321 ft 172 kts 13°
2026-04-16 06:36 57.68447 61.81999 19300 ft 174 kts 12°
2026-04-16 06:36 57.69619 61.82616 19230 ft 177 kts 13°
2026-04-16 06:36 57.70798 61.83238 19303 ft 173 kts 13°
2026-04-16 06:37 57.71941 61.83845 19326 ft 172 kts 13°
2026-04-16 06:37 57.73107 61.84464 19253 ft 175 kts 13°
2026-04-16 06:37 57.74276 61.85084 19280 ft 174 kts 13°
2026-04-16 06:37 57.75426 61.85699 19342 ft 171 kts 13°
2026-04-16 06:38 57.76573 61.86308 19263 ft 175 kts 13°
2026-04-16 06:38 57.77747 61.86928 19254 ft 175 kts 13°
2026-04-16 06:38 57.78910 61.87546 19341 ft 171 kts 13°
2026-04-16 06:38 57.80062 61.88160 19283 ft 175 kts 13°
2026-04-16 06:39 57.81232 61.88781 19234 ft 177 kts 13°
2026-04-16 06:39 57.82399 61.89404 19327 ft 172 kts 13°
2026-04-16 06:39 57.83547 61.90019 19305 ft 174 kts 13°
2026-04-16 06:39 57.84715 61.90644 19237 ft 176 kts 13°
2026-04-16 06:40 57.85894 61.91276 19310 ft 173 kts 13°
2026-04-16 06:40 57.87042 61.91891 19326 ft 173 kts 12°
2026-04-16 06:40 57.88211 61.92514 19229 ft 177 kts 13°
2026-04-16 06:40 57.89385 61.93139 19284 ft 174 kts 13°
2026-04-16 06:41 57.90536 61.93757 19336 ft 172 kts 13°
2026-04-16 06:41 57.91691 61.94377 19251 ft 175 kts 13°
2026-04-16 06:41 57.92858 61.95003 19269 ft 174 kts 13°
2026-04-16 06:41 57.94018 61.95629 19343 ft 171 kts 12°
2026-04-16 06:42 57.95161 61.96242 19295 ft 174 kts 13°
2026-04-16 06:42 57.96332 61.96869 19261 ft 175 kts 13°
2026-04-16 06:42 57.97471 61.97481 19357 ft 170 kts 12°
2026-04-16 06:42 57.98620 61.98101 19317 ft 173 kts 12°
2026-04-16 06:43 57.99772 61.98721 19259 ft 175 kts 12°
2026-04-16 06:43 58.00942 61.99352 19335 ft 171 kts 13°
2026-04-16 06:43 58.02072 61.99963 19336 ft 171 kts 12°
2026-04-16 06:43 58.03244 62.00593 19241 ft 175 kts 13°
2026-04-16 06:44 58.04396 62.01212 19313 ft 172 kts 13°
2026-04-16 06:44 58.05528 62.01824 19352 ft 170 kts 13°
2026-04-16 06:44 58.06691 62.02453 19274 ft 174 kts 13°
2026-04-16 06:44 58.07851 62.03079 19284 ft 173 kts 13°
2026-04-16 06:45 58.08981 62.03692 19359 ft 170 kts 13°
2026-04-16 06:45 58.10128 62.04315 19293 ft 173 kts 13°
2026-04-16 06:45 58.11302 62.04950 19274 ft 175 kts 12°
2026-04-16 06:45 58.12454 62.05576 19363 ft 171 kts 12°
2026-04-16 06:46 58.13599 62.06199 19301 ft 175 kts 12°
2026-04-16 06:46 58.14784 62.06842 19271 ft 176 kts 12°
2026-04-16 06:46 58.15946 62.07475 19342 ft 173 kts 12°
2026-04-16 06:46 58.17101 62.08105 19301 ft 176 kts 13°
2026-04-16 06:47 58.18293 62.08754 19233 ft 179 kts 12°
2026-04-16 06:47 58.19466 62.09392 19318 ft 175 kts 12°
2026-04-16 06:47 58.20629 62.10029 19328 ft 175 kts 12°
2026-04-16 06:47 58.21818 62.10678 19240 ft 179 kts 12°
2026-04-16 06:48 58.23019 62.11334 19299 ft 177 kts 13°
2026-04-16 06:48 58.24175 62.11968 19336 ft 175 kts 13°
2026-04-16 06:48 58.25361 62.12615 19249 ft 179 kts 13°
2026-04-16 06:48 58.26564 62.13270 19274 ft 177 kts 13°
2026-04-16 06:49 58.27718 62.13902 19342 ft 174 kts 12°
2026-04-16 06:49 58.28897 62.14548 19269 ft 178 kts 12°
2026-04-16 06:49 58.30093 62.15201 19250 ft 178 kts 13°
2026-04-16 06:49 58.31266 62.15845 19334 ft 175 kts 12°
2026-04-16 06:50 58.32440 62.16492 19297 ft 177 kts 12°
2026-04-16 06:50 58.33624 62.17142 19235 ft 179 kts 12°
2026-04-16 06:50 58.34800 62.17789 19320 ft 175 kts 12°
2026-04-16 06:50 58.35977 62.18441 19322 ft 176 kts 13°
2026-04-16 06:51 58.37154 62.19090 19239 ft 179 kts 12°
2026-04-16 06:51 58.38343 62.19747 19301 ft 176 kts 12°
2026-04-16 06:51 58.39509 62.20392 19342 ft 174 kts 12°
2026-04-16 06:51 58.40682 62.21036 19253 ft 178 kts 12°
2026-04-16 06:52 58.41861 62.21684 19269 ft 177 kts 12°
2026-04-16 06:52 58.43033 62.22335 19350 ft 173 kts 12°
2026-04-16 06:52 58.44202 62.22979 19275 ft 177 kts 12°
2026-04-16 06:52 58.45393 62.23636 19250 ft 178 kts 12°
2026-04-16 06:53 58.46551 62.24280 19331 ft 173 kts 12°
2026-04-16 06:53 58.47716 62.24926 19301 ft 175 kts 12°
2026-04-16 06:53 58.48893 62.25576 19238 ft 178 kts 12°
2026-04-16 06:53 58.50068 62.26227 19322 ft 174 kts 13°
2026-04-16 06:54 58.51227 62.26874 19327 ft 174 kts 12°
2026-04-16 06:54 58.52410 62.27532 19241 ft 178 kts 12°
2026-04-16 06:54 58.53576 62.28183 19306 ft 175 kts 12°
2026-04-16 06:54 58.54741 62.28833 19347 ft 173 kts 12°
2026-04-16 06:55 58.55914 62.29484 19258 ft 177 kts 12°
2026-04-16 06:55 58.57083 62.30132 19290 ft 175 kts 12°
2026-04-16 06:55 58.58246 62.30782 19345 ft 173 kts 12°
2026-04-16 06:55 58.59415 62.31434 19284 ft 176 kts 12°
2026-04-16 06:56 58.60589 62.32087 19261 ft 177 kts 12°
2026-04-16 06:56 58.61750 62.32737 19344 ft 173 kts 12°
2026-04-16 06:56 58.62901 62.33382 19305 ft 175 kts 12°
2026-04-16 06:56 58.64076 62.34035 19260 ft 176 kts 12°
2026-04-16 06:57 58.65241 62.34685 19331 ft 173 kts 12°
2026-04-16 06:57 58.66385 62.35328 19332 ft 173 kts 12°
2026-04-16 06:57 58.67555 62.35984 19249 ft 177 kts 12°
2026-04-16 06:57 58.68718 62.36638 19322 ft 173 kts 12°
2026-04-16 06:58 58.69875 62.37289 19360 ft 172 kts 12°
2026-04-16 06:58 58.71030 62.37936 19280 ft 175 kts 12°
2026-04-16 06:58 58.72189 62.38585 19293 ft 174 kts 12°
2026-04-16 06:58 58.73349 62.39239 19370 ft 171 kts 12°
2026-04-16 06:59 58.74494 62.39885 19298 ft 175 kts 12°
2026-04-16 06:59 58.75653 62.40536 19267 ft 175 kts 12°
2026-04-16 06:59 58.76819 62.41195 19341 ft 172 kts 12°
2026-04-16 06:59 58.77964 62.41841 19320 ft 173 kts 12°
2026-04-16 07:00 58.79130 62.42495 19249 ft 176 kts 12°
2026-04-16 07:00 58.80286 62.43147 19324 ft 173 kts 12°
2026-04-16 07:00 58.81445 62.43805 19337 ft 172 kts 12°
2026-04-16 07:01 58.83760 62.45110 19303 ft 173 kts 12°
2026-04-16 07:01 58.84903 62.45759 19357 ft 171 kts 12°
2026-04-16 07:01 58.86057 62.46411 19269 ft 175 kts 12°
2026-04-16 07:01 58.87230 62.47073 19281 ft 173 kts 12°
2026-04-16 07:02 58.88357 62.47715 19360 ft 170 kts 12°
2026-04-16 07:02 58.89513 62.48371 19290 ft 174 kts 12°
2026-04-16 07:02 58.90674 62.49027 19258 ft 175 kts 12°
2026-04-16 07:02 58.91815 62.49675 19353 ft 170 kts 12°
2026-04-16 07:03 58.92957 62.50327 19330 ft 172 kts 12°
2026-04-16 07:03 58.94116 62.50982 19262 ft 175 kts 12°
2026-04-16 07:03 58.95270 62.51641 19315 ft 170 kts 12°
2026-04-16 07:03 58.96384 62.52282 19345 ft 167 kts 12°
2026-04-16 07:04 58.97505 62.52919 19271 ft 171 kts 12°
2026-04-16 07:04 58.98643 62.53565 19294 ft 170 kts 12°
2026-04-16 07:04 58.99766 62.54209 19360 ft 167 kts 12°
2026-04-16 07:04 59.00891 62.54851 19279 ft 171 kts 12°
2026-04-16 07:05 59.02034 62.55502 19264 ft 172 kts 12°
2026-04-16 07:05 59.03161 62.56152 19356 ft 168 kts 12°
2026-04-16 07:05 59.04276 62.56789 19308 ft 171 kts 12°
2026-04-16 07:05 59.05432 62.57449 19248 ft 173 kts 12°
2026-04-16 07:06 59.06572 62.58104 19335 ft 169 kts 12°
2026-04-16 07:06 59.07688 62.58747 19339 ft 169 kts 12°
2026-04-16 07:06 59.08830 62.59399 19254 ft 173 kts 12°
2026-04-16 07:06 59.09965 62.60052 19312 ft 170 kts 12°
2026-04-16 07:07 59.11084 62.60698 19374 ft 168 kts 12°
2026-04-16 07:07 59.12224 62.61353 19279 ft 172 kts 11°
2026-04-16 07:07 59.13366 62.62009 19268 ft 171 kts 12°
2026-04-16 07:07 59.14493 62.62662 19362 ft 168 kts 12°
2026-04-16 07:08 59.15615 62.63309 19316 ft 171 kts 11°
2026-04-16 07:08 59.16771 62.63972 19267 ft 174 kts 12°
2026-04-16 07:08 59.17902 62.64628 19328 ft 168 kts 12°
2026-04-16 07:08 59.19012 62.65274 19340 ft 166 kts 12°
2026-04-16 07:09 59.20136 62.65923 19257 ft 168 kts 12°
2026-04-16 07:09 59.21239 62.66565 19294 ft 165 kts 13°
2026-04-16 07:09 59.22348 62.67209 19355 ft 164 kts 12°
2026-04-16 07:09 59.23442 62.67841 19275 ft 169 kts 12°
2026-04-16 07:10 59.24578 62.68498 19263 ft 170 kts 12°
2026-04-16 07:10 59.25698 62.69150 19346 ft 168 kts 12°
2026-04-16 07:10 59.26820 62.69801 19301 ft 171 kts 12°
2026-04-16 07:10 59.27985 62.70474 19257 ft 174 kts 12°
2026-04-16 07:11 59.29120 62.71135 19332 ft 171 kts 12°
2026-04-16 07:11 59.30253 62.71796 19312 ft 172 kts 12°
2026-04-16 07:11 59.31417 62.72471 19248 ft 175 kts 12°
2026-04-16 07:11 59.32569 62.73143 19320 ft 172 kts 12°
2026-04-16 07:12 59.33712 62.73812 19334 ft 172 kts 12°
2026-04-16 07:12 59.34878 62.74489 19243 ft 176 kts 12°
2026-04-16 07:12 59.36034 62.75165 19302 ft 174 kts 12°
2026-04-16 07:12 59.37188 62.75842 19354 ft 172 kts 12°
2026-04-16 07:13 59.38347 62.76517 19273 ft 176 kts 12°
2026-04-16 07:13 59.39511 62.77158 19285 ft 175 kts 10°
2026-04-16 07:13 59.40683 62.77714 19362 ft 171 kts 10°
2026-04-16 07:13 59.41844 62.78260 19281 ft 175 kts 10°
2026-04-16 07:14 59.43039 62.78791 19263 ft 175 kts
2026-04-16 07:14 59.44207 62.79306 19354 ft 171 kts
2026-04-16 07:14 59.45365 62.79818 19313 ft 174 kts
2026-04-16 07:14 59.46551 62.80340 19255 ft 176 kts
2026-04-16 07:15 59.47731 62.80864 19335 ft 172 kts
2026-04-16 07:15 59.48904 62.81383 19332 ft 173 kts
2026-04-16 07:15 59.50086 62.81903 19255 ft 176 kts
2026-04-16 07:15 59.51261 62.82426 19324 ft 173 kts
2026-04-16 07:16 59.52423 62.82941 19360 ft 171 kts
2026-04-16 07:16 59.53600 62.83460 19268 ft 176 kts
2026-04-16 07:16 59.54791 62.83989 19305 ft 173 kts
2026-04-16 07:16 59.55947 62.84506 19364 ft 171 kts
2026-04-16 07:17 59.57123 62.85027 19292 ft 174 kts
2026-04-16 07:17 59.58291 62.85546 19277 ft 174 kts
2026-04-16 07:17 59.59467 62.86072 19367 ft 170 kts
2026-04-16 07:17 59.60621 62.86585 19318 ft 173 kts
2026-04-16 07:18 59.61811 62.87113 19264 ft 175 kts
2026-04-16 07:18 59.62984 62.87639 19351 ft 171 kts
2026-04-16 07:18 59.64133 62.88153 19344 ft 171 kts
2026-04-16 07:18 59.65305 62.88673 19277 ft 174 kts
2026-04-16 07:19 59.66466 62.89194 19339 ft 171 kts
2026-04-16 07:19 59.67618 62.89711 19375 ft 170 kts
2026-04-16 07:19 59.68787 62.90232 19287 ft 174 kts
2026-04-16 07:19 59.69964 62.90758 19317 ft 172 kts
2026-04-16 07:20 59.71120 62.91278 19379 ft 169 kts
2026-04-16 07:20 59.72275 62.91794 19298 ft 173 kts
2026-04-16 07:20 59.73448 62.92320 19290 ft 173 kts
2026-04-16 07:20 59.74598 62.92838 19376 ft 169 kts
2026-04-16 07:21 59.75753 62.93356 19314 ft 172 kts
2026-04-16 07:21 59.76921 62.93879 19274 ft 173 kts
2026-04-16 07:21 59.78079 62.94403 19353 ft 170 kts
2026-04-16 07:21 59.79237 62.94926 19349 ft 170 kts
2026-04-16 07:22 59.80398 62.95447 19271 ft 173 kts
2026-04-16 07:22 59.81558 62.95971 19337 ft 170 kts
2026-04-16 07:22 59.82707 62.96491 19375 ft 168 kts
2026-04-16 07:22 59.83855 62.97006 19304 ft 172 kts
2026-04-16 07:23 59.85023 62.97535 19328 ft 171 kts
2026-04-16 07:23 59.86160 62.98051 19398 ft 166 kts
2026-04-16 07:23 59.87280 62.98557 19337 ft 169 kts
2026-04-16 07:23 59.88437 62.99080 19325 ft 170 kts
2026-04-16 07:24 59.89585 62.99601 19344 ft 169 kts
2026-04-16 07:24 59.90732 63.00119 19344 ft 169 kts
2026-04-16 07:24 59.91869 63.00635 19344 ft 170 kts
2026-04-16 07:24 59.93025 63.01159 19337 ft 170 kts
2026-04-16 07:25 59.94163 63.01677 19320 ft 170 kts
2026-04-16 07:25 59.95324 63.02204 19338 ft 169 kts
2026-04-16 07:25 59.96463 63.02723 19331 ft 169 kts
2026-04-16 07:25 59.97607 63.03242 19334 ft 169 kts
2026-04-16 07:26 59.98752 63.03765 19322 ft 170 kts
2026-04-16 07:26 59.99898 63.04287 19337 ft 169 kts
2026-04-16 07:26 60.01041 63.04808 19315 ft 168 kts
2026-04-16 07:26 60.02179 63.05328 19308 ft 168 kts
2026-04-16 07:27 60.03303 63.05841 19329 ft 167 kts
2026-04-16 07:27 60.04448 63.06365 19333 ft 168 kts
2026-04-16 07:27 60.05580 63.06882 19343 ft 167 kts
2026-04-16 07:27 60.06704 63.07397 19324 ft 168 kts
2026-04-16 07:28 60.07851 63.07924 19344 ft 168 kts
2026-04-16 07:28 60.08982 63.08441 19331 ft 168 kts
2026-04-16 07:28 60.10112 63.08961 19343 ft 167 kts
2026-04-16 07:28 60.11244 63.09480 19371 ft 167 kts
2026-04-16 07:29 60.12384 63.10002 19286 ft 170 kts
2026-04-16 07:29 60.13546 63.10537 19308 ft 170 kts
2026-04-16 07:29 60.14687 63.11062 19388 ft 168 kts
2026-04-16 07:29 60.15825 63.11585 19316 ft 172 kts
2026-04-16 07:30 60.16999 63.12125 19274 ft 172 kts
2026-04-16 07:30 60.18142 63.12656 19364 ft 167 kts
2026-04-16 07:30 60.19271 63.13179 19356 ft 167 kts
2026-04-16 07:30 60.20414 63.13703 19293 ft 171 kts
2026-04-16 07:31 60.21563 63.14235 19350 ft 169 kts
2026-04-16 07:31 60.22700 63.14761 19392 ft 168 kts
2026-04-16 07:31 60.23861 63.15294 19305 ft 173 kts
2026-04-16 07:31 60.25017 63.15829 19318 ft 172 kts
2026-04-16 07:32 60.26169 63.16367 19393 ft 169 kts
2026-04-16 07:32 60.27331 63.16903 19318 ft 174 kts
2026-04-16 07:32 60.28520 63.17453 19303 ft 174 kts
2026-04-16 07:32 60.29679 63.17994 19386 ft 171 kts
2026-04-16 07:33 60.30841 63.18531 19339 ft 173 kts
2026-04-16 07:33 60.32016 63.19076 19292 ft 175 kts
2026-04-16 07:33 60.33184 63.19622 19386 ft 171 kts
2026-04-16 07:33 60.34343 63.20162 19372 ft 172 kts
2026-04-16 07:34 60.35519 63.20708 19298 ft 175 kts
2026-04-16 07:34 60.36689 63.21256 19353 ft 172 kts
2026-04-16 07:34 60.37859 63.21802 19394 ft 171 kts
2026-04-16 07:34 60.39029 63.22346 19309 ft 175 kts
2026-04-16 07:35 60.40206 63.22899 19331 ft 173 kts
2026-04-16 07:35 60.41368 63.23445 19397 ft 170 kts
2026-04-16 07:35 60.42524 63.23983 19321 ft 175 kts
2026-04-16 07:35 60.43713 63.24539 19285 ft 175 kts
2026-04-16 07:36 60.44885 63.25092 19373 ft 171 kts
2026-04-16 07:36 60.46038 63.25633 19365 ft 172 kts
2026-04-16 07:36 60.47224 63.26188 19283 ft 175 kts
2026-04-16 07:36 60.48392 63.26740 19356 ft 172 kts
2026-04-16 07:37 60.49550 63.27286 19389 ft 171 kts
2026-04-16 07:37 60.50722 63.27834 19280 ft 176 kts
2026-04-16 07:37 60.51897 63.28387 19309 ft 173 kts
2026-04-16 07:37 60.53061 63.28937 19381 ft 171 kts
2026-04-16 07:38 60.54230 63.29487 19320 ft 174 kts
2026-04-16 07:38 60.55407 63.30042 19280 ft 175 kts
2026-04-16 07:38 60.56573 63.30596 19370 ft 171 kts
2026-04-16 07:38 60.57729 63.31141 19347 ft 172 kts
2026-04-16 07:39 60.58907 63.31697 19285 ft 175 kts
2026-04-16 07:39 60.60072 63.32252 19360 ft 171 kts
2026-04-16 07:39 60.61221 63.32797 19373 ft 170 kts
2026-04-16 07:39 60.62381 63.33345 19303 ft 174 kts
2026-04-16 07:40 60.63561 63.33907 19340 ft 170 kts
2026-04-16 07:40 60.64696 63.34449 19390 ft 168 kts
2026-04-16 07:40 60.65851 63.34996 19325 ft 172 kts
2026-04-16 07:40 60.67004 63.35544 19304 ft 172 kts
2026-04-16 07:41 60.68163 63.36098 19388 ft 168 kts
2026-04-16 07:41 60.69306 63.36641 19351 ft 171 kts
2026-04-16 07:41 60.70466 63.37191 19287 ft 173 kts
2026-04-16 07:41 60.71611 63.37739 19367 ft 169 kts
2026-04-16 07:42 60.72758 63.38288 19388 ft 168 kts
2026-04-16 07:42 60.73903 63.38832 19316 ft 172 kts
2026-04-16 07:42 60.75060 63.39387 19355 ft 170 kts
2026-04-16 07:42 60.76194 63.39932 19410 ft 168 kts
2026-04-16 07:43 60.77351 63.40483 19337 ft 171 kts
2026-04-16 07:43 60.78511 63.41039 19344 ft 170 kts
2026-04-16 07:43 60.79636 63.41581 19412 ft 168 kts
2026-04-16 07:43 60.80774 63.42126 19353 ft 171 kts
2026-04-16 07:44 60.81944 63.42686 19315 ft 172 kts
2026-04-16 07:44 60.83083 63.43237 19401 ft 167 kts
2026-04-16 07:44 60.84217 63.43784 19377 ft 168 kts
2026-04-16 07:44 60.85365 63.44335 19320 ft 171 kts
2026-04-16 07:45 60.86510 63.44888 19392 ft 167 kts
2026-04-16 07:45 60.87630 63.45429 19407 ft 167 kts
2026-04-16 07:45 60.88771 63.45976 19322 ft 171 kts
2026-04-16 07:45 60.89933 63.46538 19365 ft 169 kts
2026-04-16 07:46 60.91071 63.47084 19417 ft 167 kts
2026-04-16 07:46 60.92213 63.47631 19341 ft 172 kts
2026-04-16 07:46 60.93366 63.48189 19329 ft 172 kts
2026-04-16 07:46 60.94516 63.48748 19400 ft 169 kts
2026-04-16 07:47 60.95667 63.49304 19377 ft 170 kts
2026-04-16 07:47 60.96822 63.49862 19318 ft 173 kts
2026-04-16 07:47 60.97979 63.50427 19394 ft 169 kts
2026-04-16 07:47 60.99106 63.50975 19398 ft 169 kts
2026-04-16 07:48 61.00267 63.51536 19326 ft 172 kts
2026-04-16 07:48 61.01426 63.52101 19383 ft 169 kts
2026-04-16 07:48 61.02554 63.52653 19421 ft 168 kts
2026-04-16 07:48 61.03693 63.53204 19345 ft 171 kts
2026-04-16 07:49 61.04853 63.53769 19348 ft 171 kts
2026-04-16 07:49 61.05994 63.54327 19426 ft 167 kts
2026-04-16 07:49 61.07135 63.54882 19359 ft 171 kts
2026-04-16 07:49 61.08303 63.55450 19316 ft 172 kts
2026-04-16 07:50 61.09444 63.56009 19396 ft 169 kts
2026-04-16 07:50 61.10589 63.56569 19385 ft 170 kts
2026-04-16 07:50 61.11735 63.57129 19319 ft 172 kts
2026-04-16 07:50 61.12904 63.57702 19369 ft 171 kts
2026-04-16 07:51 61.14055 63.58263 19402 ft 171 kts
2026-04-16 07:51 61.15226 63.58833 19306 ft 176 kts
2026-04-16 07:51 61.16422 63.59420 19353 ft 174 kts
2026-04-16 07:51 61.17587 63.59996 19404 ft 172 kts
2026-04-16 07:52 61.18760 63.60570 19314 ft 176 kts
2026-04-16 07:52 61.19943 63.61149 19337 ft 175 kts
2026-04-16 07:52 61.21115 63.61727 19403 ft 172 kts
2026-04-16 07:52 61.22281 63.62303 19331 ft 176 kts
2026-04-16 07:53 61.23476 63.62889 19310 ft 177 kts
2026-04-16 07:53 61.24670 63.63480 19403 ft 174 kts
2026-04-16 07:53 61.25846 63.64061 19357 ft 176 kts
2026-04-16 07:53 61.27032 63.64646 19292 ft 178 kts
2026-04-16 07:54 61.28160 63.65720 19421 ft 181 kts 26°
2026-04-16 07:54 61.29115 63.67441 19384 ft 187 kts 31°
2026-04-16 07:54 61.30123 63.69247 19203 ft 193 kts 30°
2026-04-16 07:54 61.31120 63.71053 19374 ft 185 kts 31°
2026-04-16 07:55 61.32070 63.72816 19414 ft 183 kts 31°
2026-04-16 07:55 61.33028 63.74571 19344 ft 186 kts 31°
2026-04-16 07:55 61.34000 63.76357 19341 ft 185 kts 31°
2026-04-16 07:55 61.34956 63.78122 19359 ft 184 kts 30°
2026-04-16 07:56 61.35915 63.79889 19360 ft 185 kts 30°
2026-04-16 07:56 61.36874 63.81657 19354 ft 185 kts 30°
2026-04-16 07:56 61.37844 63.83452 19368 ft 185 kts 31°
2026-04-16 07:56 61.38797 63.85213 19380 ft 185 kts 31°
2026-04-16 07:57 61.39764 63.87000 19367 ft 186 kts 31°
2026-04-16 07:57 61.40732 63.88786 19353 ft 187 kts 31°
2026-04-16 07:57 61.41688 63.90558 19374 ft 185 kts 31°
2026-04-16 07:57 61.42657 63.92355 19366 ft 186 kts 31°
2026-04-16 07:58 61.43623 63.94148 19376 ft 186 kts 31°
2026-04-16 07:58 61.44586 63.95938 19345 ft 187 kts 31°
2026-04-16 07:58 61.45555 63.97744 19357 ft 187 kts 31°
2026-04-16 07:58 61.46527 63.99556 19384 ft 186 kts 31°
2026-04-16 07:59 61.47488 64.01343 19366 ft 187 kts 31°
2026-04-16 07:59 61.48451 64.03138 19376 ft 187 kts 31°
2026-04-16 07:59 61.49427 64.04959 19371 ft 187 kts 31°
2026-04-16 07:59 61.50391 64.06756 19364 ft 187 kts 30°
2026-04-16 08:00 61.51354 64.08557 19378 ft 186 kts 31°
2026-04-16 08:00 61.52322 64.10365 19362 ft 187 kts 30°
2026-04-16 08:00 61.53288 64.12172 19373 ft 187 kts 31°
2026-04-16 08:00 61.54262 64.13996 19341 ft 188 kts 30°
2026-04-16 08:01 61.55227 64.15807 19359 ft 187 kts 31°
2026-04-16 08:01 61.56200 64.17634 19370 ft 187 kts 31°
2026-04-16 08:01 61.57167 64.19448 19356 ft 188 kts 31°
2026-04-16 08:01 61.58135 64.21273 19382 ft 186 kts 31°
2026-04-16 08:02 61.59099 64.23087 19367 ft 187 kts 31°
2026-04-16 08:02 61.61024 64.26716 19358 ft 185 kts 30°
2026-04-16 08:02 61.61982 64.28526 19363 ft 184 kts 31°
2026-04-16 08:03 61.62923 64.30288 19344 ft 182 kts 30°
2026-04-16 08:03 61.63851 64.32047 18969 ft 181 kts 31°
2026-04-16 08:03 61.64793 64.33817 18468 ft 184 kts 31°
2026-04-16 08:03 61.65711 64.35642 18167 ft 180 kts 32°
2026-04-16 08:04 61.66606 64.37435 17810 ft 178 kts 32°
2026-04-16 08:04 61.67511 64.39168 17365 ft 179 kts 30°
2026-04-16 08:04 61.68473 64.40820 16884 ft 180 kts 27°
2026-04-16 08:04 61.69464 64.42396 16500 ft 178 kts 28°
2026-04-16 08:05 61.70412 64.44035 16142 ft 178 kts 31°
2026-04-16 08:05 61.71337 64.45732 15757 ft 178 kts 31°
2026-04-16 08:05 61.72262 64.47424 15308 ft 180 kts 31°
2026-04-16 08:05 61.73198 64.49152 14897 ft 180 kts 32°
2026-04-16 08:06 61.74139 64.50899 14542 ft 178 kts 32°
2026-04-16 08:06 61.75060 64.52596 14169 ft 177 kts 32°
2026-04-16 08:06 61.75977 64.54324 13759 ft 178 kts 32°
2026-04-16 08:06 61.76893 64.56049 13362 ft 178 kts 32°
2026-04-16 08:07 61.77819 64.57736 12991 ft 177 kts 31°
2026-04-16 08:07 61.78764 64.59396 12597 ft 177 kts 31°
2026-04-16 08:07 61.79686 64.61083 12241 ft 176 kts 33°
2026-04-16 08:07 61.80568 64.62837 11857 ft 177 kts 35°
2026-04-16 08:08 61.81445 64.64640 11488 ft 176 kts 36°
2026-04-16 08:08 61.82318 64.66426 11117 ft 175 kts 36°
2026-04-16 08:08 61.83213 64.68169 10703 ft 176 kts 35°
2026-04-16 08:08 61.84115 64.69887 10324 ft 175 kts 35°
2026-04-16 08:09 61.85005 64.71638 9972 ft 173 kts 36°
2026-04-16 08:09 61.85894 64.73329 9588 ft 173 kts 34°
2026-04-16 08:09 61.86797 64.74988 9208 ft 172 kts 34°
2026-04-16 08:09 61.87683 64.76644 8848 ft 171 kts 35°
2026-04-16 08:10 61.88567 64.78320 8454 ft 172 kts 36°
2026-04-16 08:10 61.89463 64.80016 8080 ft 171 kts 36°
2026-04-16 08:10 61.90343 64.81654 7715 ft 169 kts 35°
2026-04-16 08:10 61.91222 64.83283 7347 ft 170 kts 38°
2026-04-16 08:11 61.91966 64.85277 6960 ft 176 kts 52°
2026-04-16 08:11 61.92513 64.87545 6683 ft 173 kts 58°
2026-04-16 08:11 61.92938 64.89933 6274 ft 178 kts 64°
2026-04-16 08:11 61.93315 64.92438 5884 ft 179 kts 66°
2026-04-16 08:12 61.93652 64.94980 5537 ft 178 kts 69°
2026-04-16 08:12 61.93986 64.97475 5171 ft 177 kts 66°
2026-04-16 08:12 61.94352 64.99987 4801 ft 177 kts 67°
2026-04-16 08:12 61.94717 65.02431 4455 ft 176 kts 66°
2026-04-16 08:13 61.95102 65.04881 4102 ft 175 kts 66°
2026-04-16 08:13 61.95488 65.07300 3750 ft 174 kts 68°
2026-04-16 08:13 61.95869 65.09743 3410 ft 173 kts 68°
2026-04-16 08:13 61.96236 65.12158 3065 ft 172 kts 68°
2026-04-16 08:14 61.96595 65.14559 2708 ft 171 kts 69°
2026-04-16 08:14 61.96966 65.16961 2371 ft 175 kts 67°
2026-04-16 08:14 61.97333 65.19267 2580 ft 152 kts 67°
2026-04-16 08:14 61.97670 65.21394 2512 ft 154 kts 63°
2026-04-16 08:15 61.98063 65.23521 2539 ft 157 kts 66°
2026-04-16 08:15 61.98445 65.25681 2617 ft 155 kts 64°
2026-04-16 08:15 61.98859 65.27799 2671 ft 155 kts 65°
2026-04-16 08:15 61.99239 65.29943 2756 ft 154 kts 64°
2026-04-16 08:16 61.99699 65.31988 2783 ft 154 kts 56°
2026-04-16 08:16 62.00262 65.33921 2826 ft 153 kts 55°
2026-04-16 08:16 62.00802 65.35826 2916 ft 150 kts 55°
2026-04-16 08:16 62.01323 65.37794 2900 ft 155 kts 57°
2026-04-16 08:17 62.01878 65.39761 2945 ft 153 kts 54°
2026-04-16 08:17 62.02428 65.41674 3004 ft 151 kts 54°
2026-04-16 08:17 62.02983 65.43571 2972 ft 153 kts 53°
2026-04-16 08:17 62.03598 65.45442 2943 ft 155 kts 51°
2026-04-16 08:18 62.04193 65.47334 3045 ft 150 kts 52°
2026-04-16 08:19 62.08328 65.60502 3016 ft 153 kts 46°
2026-04-16 08:20 62.09039 65.62163 3019 ft 151 kts 44°
2026-04-16 08:20 62.09587 65.64087 2972 ft 158 kts 69°
2026-04-16 08:20 62.09593 65.66489 2903 ft 169 kts 101°
2026-04-16 08:20 62.09003 65.68683 2847 ft 178 kts 130°
2026-04-16 08:21 62.07937 65.70070 2806 ft 184 kts 161°
2026-04-16 08:21 62.06662 65.70206 2814 ft 182 kts 186°
2026-04-16 08:21 62.05446 65.70074 2908 ft 174 kts 181°
2026-04-16 08:21 62.04216 65.69991 2795 ft 180 kts 183°
2026-04-16 08:22 62.02965 65.69846 2755 ft 180 kts 182°
2026-04-16 08:22 62.01722 65.69707 2757 ft 177 kts 183°
2026-04-16 08:22 62.00490 65.69540 2664 ft 180 kts 183°
2026-04-16 08:22 61.99242 65.69449 2595 ft 181 kts 180°
2026-04-16 08:23 61.98004 65.69399 2611 ft 178 kts 180°
2026-04-16 08:23 61.96757 65.69307 2560 ft 179 kts 181°
2026-04-16 08:23 61.95518 65.69302 2505 ft 180 kts 180°
2026-04-16 08:23 61.94286 65.69037 2494 ft 177 kts 190°
2026-04-16 08:24 61.93037 65.68918 2390 ft 181 kts 179°
2026-04-16 08:24 61.91788 65.68841 2392 ft 178 kts 182°
2026-04-16 08:24 61.90561 65.68799 2362 ft 177 kts 176°
2026-04-16 08:24 61.89342 65.68708 2306 ft 179 kts 193°
2026-04-16 08:25 61.88261 65.67568 2309 ft 173 kts 223°
2026-04-16 08:25 61.87610 65.65499 2285 ft 168 kts 257°
2026-04-16 08:25 61.87587 65.63120 2267 ft 158 kts 291°
2026-04-16 08:25 61.88112 65.61245 2318 ft 146 kts 322°
2026-04-16 08:26 61.88988 65.60407 2374 ft 135 kts 355°
2026-04-16 08:26 61.89912 65.60184 2290 ft 128 kts 355°
2026-04-16 08:26 61.90752 65.59992 2255 ft 118 kts 355°
2026-04-16 08:26 61.91566 65.59785 2213 ft 118 kts 355°
2026-04-16 08:27 61.92368 65.59496 2183 ft 118 kts 354°
2026-04-16 08:27 61.93177 65.59551 2196 ft 115 kts
2026-04-16 08:27 61.93975 65.59764 2194 ft 115 kts
2026-04-16 08:27 61.94795 65.59900 2158 ft 119 kts
2026-04-16 08:28 61.95615 65.59905 2171 ft 118 kts
2026-04-16 08:28 61.96416 65.60031 2213 ft 116 kts
2026-04-16 08:28 61.97209 65.60230 2262 ft 116 kts
2026-04-16 08:28 61.98018 65.60185 2299 ft 117 kts
2026-04-16 08:29 61.98852 65.60210 2250 ft 121 kts
2026-04-16 08:29 61.99669 65.60342 2360 ft 111 kts
2026-04-16 08:29 62.00392 65.60435 2499 ft 102 kts
2026-04-16 08:29 62.01119 65.60438 2324 ft 108 kts
2026-04-16 08:30 62.01869 65.60546 2193 ft 106 kts
2026-04-16 08:30 62.02612 65.60595 1957 ft 108 kts
2026-04-16 08:30 62.03362 65.60651 1784 ft 108 kts
2026-04-16 08:30 62.04113 65.60706 1616 ft 109 kts
2026-04-16 08:31 62.04865 65.60758 1494 ft 107 kts
2026-04-16 08:31 62.05606 65.60819 1282 ft 108 kts
2026-04-16 08:31 62.06365 65.60941 1035 ft 111 kts
2026-04-16 08:31 62.07130 65.60903 916 ft 109 kts 360°
2026-04-16 08:32 62.07881 65.61037 753 ft 111 kts
2026-04-16 08:32 62.08656 65.61136 627 ft 109 kts
2026-04-16 08:32 62.09412 65.61225 453 ft 108 kts
2026-04-16 08:32 62.10142 65.61308 356 ft 96 kts
2026-04-16 08:33 62.10645 65.61352 365 ft 50 kts
2026-04-16 08:33 62.10840 65.61383 369 ft 13 kts 15°
2026-04-16 08:33 62.10863 65.61352 369 ft 4 kts 213°
2026-04-16 08:33 62.10801 65.61359 368 ft 11 kts 178°
2026-04-16 08:34 62.10614 65.61349 364 ft 29 kts 182°
2026-04-16 08:34 62.10429 65.61331 360 ft 24 kts 184°
2026-04-16 08:34 62.10276 65.61320 357 ft 20 kts 182°
2026-04-16 08:34 62.10146 65.61304 355 ft 17 kts 186°
2026-04-16 08:35 62.10064 65.61279 353 ft 7 kts 200°
2026-04-16 08:35 62.10058 65.61304 353 ft 4 kts 358°
2026-04-16 08:35 62.10126 65.61307 355 ft 8 kts
2026-04-16 08:35 62.10172 65.61301 356 ft 9 kts 336°
2026-04-16 08:36 62.10191 65.61186 357 ft 15 kts 273°
2026-04-16 08:36 62.10194 65.61007 360 ft 7 kts 274°
2026-04-16 08:36 62.10189 65.60928 361 ft 10 kts 226°
2026-04-16 08:36 62.10134 65.60854 362 ft 7 kts 266°
2026-04-16 08:37 62.10136 65.60770 363 ft 10 kts 272°
2026-04-16 08:37 62.10154 65.60693 364 ft 4 kts 11°
2026-04-16 08:37 62.10177 65.60698 364 ft 1 kts
2026-04-16 08:37 62.10178 65.60698 364 ft 0 kts